Simultaneous Nadir Overpasses (SNOs) Predictions

Prediction of SNOs between METOP-A and NOAA-19 Satellite Orbit:

Table of predicted SNOs for the next 14.0 days since TLE Epoch: 7/1/2013
Index Date (METOP-A) Time (METOP-A) Lat,Lon (METOP-A) SZA (METOP-A ) Date (NOAA-19) Time (NOAA-19) Lat,Lon (NOAA-19) SZA (NOAA-19 ) Distance(km) Time Diff (sec)
1 07/08/2013 14:43:01 -74.07, 133.83 128.30 07/08/2013 14:41:53 -74.11, 131.13 128.12 82.57 68
2 07/08/2013 15:33:51 73.54, -60.11 51.23 07/08/2013 15:32:39 73.53, -60.18 51.24 2.38 72
3 07/08/2013 16:24:34 -73.50, 107.14 128.80 07/08/2013 16:23:45 -73.50, 107.10 128.79 1.23 49
4 07/08/2013 17:15:14 73.46, -85.62 51.17 07/08/2013 17:14:42 73.46, -85.53 51.17 2.93 32
5 07/08/2013 18:05:56 -73.48, 81.75 128.81 07/08/2013 18:05:49 -73.48, 81.64 128.80 3.41 7
6
